Regional Weather Roundup
Issued by NWS Sterling, VA

Home | Current Version | Previous Version | Graphics & Text | Print | Product List | Glossary On
Versions: 1 2 3 4 5 6 7 8 9 10 11 12 13 14 15 16 17 18 19 20 21 22 23 24 25 26 27
000
ASUS41 KLWX 161511
RWRLWX

REGIONAL WEATHER ROUNDUP
NATIONAL WEATHER SERVICE BALTIMORE MD/WASHINGTON DC
1100 AM EDT MON OCT 16 2017

Note: "FAIR" indicates few or no clouds below 12,000 feet
with no significant weather and/or obstructions to visibility.
 TC=TEMPERATURE CELSIUS

 * =Non NWS site. Station does not report precipitation (e.g. rain,
    snow, etc.), thunder, or fog.

DCZ001-MDZ009-015-VAZ040>042-051-053>054-161600-
WASHINGTON METRO

CITY           SKY/WX    TMP DP  RH WIND       PRES   REMARKS
WASHINGTON NAT CLOUDY    62  47  57 NW13      30.10R
DULLES         CLOUDY    59  44  57 NW17      30.11R
ANDREWS AFB    CLOUDY    60  44  55 NW16G25   30.08R
FT BELVOIR     CLOUDY    61  46  57 NW8       30.10R
QUANTICO       CLOUDY    61  49  64 N16G24    30.10R
COLLEGE PARK*  CLOUDY    59  45  59 NW8       30.08R
LEESBURG*      CLOUDY    59  46  63 N18G25    30.12R
MANASSAS*      CLOUDY    60  48  64 NW14G21   30.12R
GAITHERSBURG*  CLOUDY    57  43  59 NW10G21   30.10R

$$

MDZ006>007-011-014-161600-
BALTIMORE METRO

CITY           SKY/WX    TMP DP  RH WIND       PRES   REMARKS
BWI AIRPORT    CLOUDY    59  46  62 NW12      30.07R
MD SCIENCE CTR   N/A     61  45  55 MISG      30.08R
MARTIN STATE   PTSUNNY   61  48  63 NW16G23   30.08S
ANNAPOLIS      CLOUDY    62  52  69 NW13      30.06S
FORT MEADE*    CLOUDY    59  45  58 NW12G17   30.11R

$$

MDZ012-015-019>023-161600-
MARYLAND EASTERN SHORE

CITY           SKY/WX    TMP DP  RH WIND       PRES   REMARKS
OCEAN CITY     LGT RAIN  59  58  96 NW8       30.03F
SALISBURY      LGT RAIN  60  59  96 NW7       30.03S
CAMBRIDGE*     CLOUDY    61  55  82 N12G22    30.04F
EASTON*        PTSUNNY   61  50  67 N10G17    30.07F

$$

MDZ017>025-161600-
SOUTHERN MARYLAND

CITY           SKY/WX    TMP DP  RH WIND       PRES   REMARKS
PATUXENT RIVER CLOUDY    61  55  81 NW18      30.05R
ST INIGOES     CLOUDY    61  57  87 VRB7      30.03S
LEONARDTOWN*   NOT AVBL

$$

MDZ003>005-161600-
NORTH CENTRAL MARYLAND

CITY           SKY/WX    TMP DP  RH WIND       PRES   REMARKS
FREDERICK*     PTSUNNY   61  41  48 NW16G23   30.13F
HAGERSTOWN APT PTSUNNY   58  42  55 NW20      30.12F
WESTMINSTER*   CLOUDY    55  43  62 N12G21    30.10S

$$

MDZ501>502-161600-
WESTERN MARYLAND

CITY           SKY/WX    TMP DP  RH WIND       PRES   REMARKS
OAKLAND*       CLOUDY    41  37  87 NW7       30.14R
CUMBERLAND*    CLOUDY    54  37  54 N3        30.22S

$$

VAZ025>031-161600-
SHENANDOAH VALLEY

CITY           SKY/WX    TMP DP  RH WIND       PRES   REMARKS
WINCHESTER*    CLOUDY    55  41  58 NW18G29   30.12S
FRONT ROYAL*   CLOUDY    55  43  62 NW7       30.12R
LURAY*         CLOUDY    57  43  58 NW8G18    30.13R
NEW MARKET*    CLOUDY    57  43  58 N5        30.13R
STAUNTON*      CLOUDY    57  41  54 N12       30.14S
WAYNESBORO*    CLOUDY    56  42  59 NW13      30.12S

$$

WVZ021-048>050-054>055-161600-
EASTERN WEST VIRGINIA PANHANDLE

CITY           SKY/WX    TMP DP  RH WIND       PRES   REMARKS
MARTINSBURG    PTSUNNY   58  38  47 NW16G26   30.12S
PETERSBURG*    CLOUDY    54  41  62 N8        30.17R

$$

VAZ036>039-050-161600-
CENTRAL FOOTHILLS

CITY           SKY/WX    TMP DP  RH WIND       PRES   REMARKS
CHARLOTTESVILL CLOUDY    64  45  49 NW9       30.10S
CULPEPER*      CLOUDY    61  45  54 N18G24    30.11S
ORANGE*        CLOUDY    61  46  59 CALM      30.09F
GORDONSVILLE*  CLOUDY    63  50  62 N6        30.09S
WARRENTON*     CLOUDY    62  42  48 NW17G24   30.10S

$$

VAZ055>057-161600-
NORTH AND CENTRAL PIEDMONT

CITY           SKY/WX    TMP DP  RH WIND       PRES   REMARKS
FREDERICKSBRG* CLOUDY    61  50  65 N17G28    30.07F
STAFFORD*      CLOUDY    59  49  68 NW17G24   30.13S

$$

NCZ024-NYZ072-PAZ021-071-VAZ022-071-161600-
OTHER REGIONAL OBSERVATIONS

CITY           SKY/WX    TMP DP  RH WIND       PRES   REMARKS
NEW YORK CITY  CLOUDY    57  42  57 MISG      30.04R
PHILADELPHIA   CLOUDY    59  43  55 NW16G22   30.05R
PITTSBURGH     PTSUNNY   51  43  74 N12       30.23R
ROANOKE        CLOUDY    60  43  53 N12G23    30.16S
RICHMOND       CLOUDY    60  55  83 N6        30.09R
RALEIGH        LGT RAIN  59  59 100 N7        30.09R

$$

ANZ530>537-161600-
MARINE OBSERVATIONS

STATION/POSITION TIME  TEMP    WIND        PRES
                       AIR SEA DIR/SP/G
                 (UTC) (F)     (DEG/KT/KT) (MB)
THOMAS PT LIGHT  1500   61 70  330/ 19/ 22   N/A
BALT KEY BRIDGE  1448   60     310/ 19/ 21 1017.6R
COVE POINT       1448   62     350/ 23/ 29 1018.0R
LEWISETTA        1448   62 70   10/  7/ 12 1016.8F
SOLOMONS ISLAND  1448   62 72  330/ 12/ 20 1017.3R
PINEY POINT      1442          360/ 14/ 15   N/A

$$





USA.gov is the U.S. government's official web portal to all federal, state and local government web resources and services.